Burnet, TX

1:06 PM CDT on July 28, 2017 (GMT -0500)
Burnet Municipal-Craddock

Weather History for KBMQ - February, 2012

Change the Weather History Date:

Wednesday, February 15, 2012

  Actual Average Record
Temperature  
Mean Temperature 64 °F -  
Max Temperature 75 °F 61 °F 84 °F (2005)
Min Temperature 52 °F 41 °F 26 °F (2007)
Growing Degree Days 14 (Base 50)    
Moisture  
Dew Point 55 °F    
Average Humidity 79    
Maximum Humidity 100    
Minimum Humidity 26    
Precipitation  
Precipitation 0.00 in - - ()
Sea Level Pressure  
Sea Level Pressure 29.94 in    
Wind  
Wind Speed 6 mph (West)    
Max Wind Speed 16 mph    
Max Gust Speed 21 mph    
Visibility 6 miles    
Events Rain    
Averages and records for this station are not official NWS values.
T = Trace of Precipitation, MM = Missing Value Source: NWS Daily Summary

Daily Weather History Graph

Daily Weather History Graph

Search for Another Location

Airport or City:

Trip Planner

Search our weather history database for the weather conditions in past years. The results will help you decide how hot, cold, wet, or windy it might be!

Date:

Astronomy

Feb. 15, 2012 Rise Set
Actual Time 7:14 AM CST 6:20 PM CST
Civil Twilight 6:49 AM CST 6:45 PM CST
Nautical Twilight 6:21 AM CST 7:13 PM CST
Astronomical Twilight 5:53 AM CST 7:41 PM CST
Moon 1:56 AM CST (2/15) 12:29 PM CST (2/15)
Length of Visible Light 11h 55m
Length of Day
11h 06m
Last Quarter, 38% of the Moon is Illuminated
Feb 15
Last Quarter
Feb 21
New
Feb 29
First Quarter
Mar 8
Full
Mar 14
Last Quarter

Hourly Weather History & Observations

Time (CST) Temp. Dew Point Humidity Pressure Visibility Wind Dir Wind Speed Gust Speed Precip Events Conditions
12:25 AM 62.6 °F 59.0 °F 88% 29.90 in 5.0 mi South 13.8 mph 19.6 mph N/A   Overcast
12:53 AM 62.1 °F 60.1 °F 93% 29.87 in 4.0 mi South 12.7 mph 18.4 mph N/A   Overcast
1:53 AM 62.1 °F 60.1 °F 93% 29.85 in 5.0 mi South 6.9 mph - N/A   Mist
2:09 AM 62.6 °F 60.8 °F 94% 29.89 in 4.0 mi SSE 8.1 mph - N/A   Overcast
2:53 AM 62.1 °F 61.0 °F 96% 29.86 in 2.5 mi SSE 5.8 mph - N/A   Overcast
3:31 AM 62.6 °F 60.8 °F 94% 29.89 in 3.0 mi South 8.1 mph - N/A   Overcast
3:50 AM 62.6 °F 60.8 °F 94% 29.92 in 5.0 mi SW 4.6 mph - 0.00 in   Overcast
3:53 AM 63.0 °F 61.0 °F 93% 29.88 in 5.0 mi SSW 4.6 mph - 0.00 in   Overcast
4:13 AM 62.6 °F 60.8 °F 94% 29.92 in 5.0 mi WSW 3.5 mph - 0.00 in Rain Light Rain
4:33 AM 62.6 °F 60.8 °F 94% 29.92 in 5.0 mi South 6.9 mph - 0.00 in Rain Light Rain
4:53 AM 63.0 °F 61.0 °F 93% 29.89 in 5.0 mi Calm Calm - 0.00 in Rain Light Rain
6:42 AM 60.8 °F 59.0 °F 94% 29.93 in 1.8 mi Calm Calm - N/A   Partly Cloudy
6:53 AM 61.0 °F 59.0 °F 93% 29.90 in 1.8 mi Calm Calm - N/A   Scattered Clouds
6:57 AM 60.8 °F 59.0 °F 94% 29.93 in 3.0 mi Calm Calm - N/A   Scattered Clouds
7:02 AM 60.8 °F 59.0 °F 94% 29.93 in 1.5 mi Calm Calm - N/A   Mostly Cloudy
7:09 AM 60.8 °F 59.0 °F 94% 29.94 in 1.0 mi Calm Calm - N/A   Mostly Cloudy
7:14 AM 60.8 °F 59.0 °F 94% 29.94 in 2.0 mi Calm Calm - N/A   Mostly Cloudy
7:33 AM 60.8 °F 59.0 °F 94% 29.94 in 0.8 mi Calm Calm - N/A   Mostly Cloudy
7:38 AM 60.8 °F 59.0 °F 94% 29.94 in 1.5 mi Calm Calm - N/A   Mostly Cloudy
7:53 AM 59.0 °F 57.9 °F 96% 29.91 in 1.2 mi Calm Calm - N/A   Mostly Cloudy
8:08 AM 60.8 °F 59.0 °F 94% 29.95 in 2.0 mi Calm Calm - N/A   Scattered Clouds
8:19 AM 60.8 °F 59.0 °F 94% 29.95 in 3.0 mi Calm Calm - N/A   Scattered Clouds
8:21 AM 60.8 °F 59.0 °F 94% 29.95 in 1.2 mi Calm Calm - N/A   Scattered Clouds
8:28 AM 60.8 °F 60.8 °F 100% 29.95 in 0.8 mi Calm Calm - N/A   Mist
8:33 AM 60.8 °F 60.8 °F 100% 29.95 in 1.2 mi Calm Calm - N/A   Partly Cloudy
8:36 AM 60.8 °F 60.8 °F 100% 29.96 in 2.0 mi Calm Calm - N/A   Partly Cloudy
8:45 AM 62.6 °F 60.8 °F 94% 29.96 in 3.0 mi Calm Calm - N/A   Partly Cloudy
8:53 AM 63.0 °F 61.0 °F 93% 29.94 in 3.0 mi Calm Calm - N/A   Partly Cloudy
9:32 AM 64.4 °F 62.6 °F 94% 29.99 in 6.0 mi West 3.5 mph - N/A   Mostly Cloudy
9:53 AM 64.9 °F 62.1 °F 90% 29.97 in 6.0 mi West 4.6 mph - N/A   Overcast
10:00 AM 64.4 °F 62.6 °F 94% 30.00 in 6.0 mi NW 6.9 mph - N/A   Overcast
10:11 AM 64.4 °F 60.8 °F 88% 29.99 in 7.0 mi Calm Calm - N/A   Mostly Cloudy
10:53 AM 69.1 °F 61.0 °F 75% 29.95 in 9.0 mi WNW 5.8 mph - N/A   Scattered Clouds
11:53 AM 70.0 °F 59.0 °F 68% 29.94 in 10.0 mi WNW 13.8 mph - N/A   Partly Cloudy
12:33 PM 69.8 °F 57.2 °F 64% 29.97 in 10.0 mi WNW 13.8 mph 19.6 mph N/A   Mostly Cloudy
12:41 PM 69.8 °F 55.4 °F 60% 29.97 in 10.0 mi WNW 12.7 mph 20.7 mph N/A   Mostly Cloudy
12:53 PM 70.0 °F 55.0 °F 59% 29.93 in 10.0 mi WNW 8.1 mph 16.1 mph N/A   Mostly Cloudy
1:53 PM 73.0 °F 46.0 °F 38% 29.91 in 10.0 mi NW 16.1 mph 20.7 mph N/A   Clear
2:53 PM 73.9 °F 44.1 °F 34% 29.90 in 10.0 mi NW 12.7 mph 18.4 mph N/A   Clear
3:53 PM 75.0 °F 37.9 °F 26% 29.90 in 10.0 mi WNW 10.4 mph - N/A   Clear
4:53 PM 73.0 °F 37.0 °F 27% 29.91 in 10.0 mi NW 8.1 mph - N/A   Unknown
5:53 PM 70.0 °F 39.0 °F 32% 29.94 in 10.0 mi NW 5.8 mph - N/A   Clear
6:53 PM 64.0 °F 41.0 °F 43% 29.96 in 10.0 mi NW 3.5 mph - N/A   Clear
7:53 PM 59.0 °F 43.0 °F 55% 30.00 in 10.0 mi Calm Calm - N/A   Clear
8:53 PM 62.1 °F 37.0 °F 39% 30.03 in 10.0 mi WNW 3.5 mph - N/A   Clear
9:53 PM 55.9 °F 41.0 °F 57% 30.05 in 10.0 mi Calm Calm - N/A   Clear
10:53 PM 54.0 °F 39.0 °F 57% 30.06 in 10.0 mi Calm Calm - N/A   Clear
11:53 PM 52.0 °F 37.0 °F 57% 30.06 in 10.0 mi North 4.6 mph - N/A   Clear